Time,TemperatureF,DewpointF,PressureIn,WindDirection,WindDirectionDegrees,WindSpeedMPH,WindSpeedGustMPH,Humidity,HourlyPrecipIn,Conditions,Clouds,dailyrainin,SolarRadiationWatts/m^2,SoftwareType,DateUTC
2013-02-11 00:04:00,35.9,34.1,29.33,South,180,7.6,11.5,93,0.01,-RA,,0.01,0.0,WeatherDisplay:10.37,2013-02-11 06:04:00,
2013-02-11 00:09:00,35.9,34.1,29.33,South,190,12.1,16.1,93,0.01,-RA,,0.01,0.0,WeatherDisplay:10.37,2013-02-11 06:09:00,
2013-02-11 00:14:00,35.8,34.0,29.33,South,182,7.0,7.2,93,0.01,-RA,,0.01,0.0,WeatherDisplay:10.37,2013-02-11 06:14:00,
2013-02-11 00:19:00,35.6,33.8,29.33,SSW,210,9.8,20.4,93,0.01,-RA,,0.01,0.0,WeatherDisplay:10.37,2013-02-11 06:19:00,
2013-02-11 00:24:00,35.6,33.8,29.33,SSW,213,9.6,10.8,93,0.01,-RA,,0.01,0.0,WeatherDisplay:10.37,2013-02-11 06:24:00,
2013-02-11 00:29:00,35.5,33.7,29.33,SSW,207,9.0,10.8,93,0.01,-RA,,0.01,0.0,WeatherDisplay:10.37,2013-02-11 06:29:00,
2013-02-11 00:34:00,35.3,33.5,29.33,South,184,8.3,10.8,93,0.01,-RA,,0.01,0.0,WeatherDisplay:10.37,2013-02-11 06:34:00,
2013-02-11 00:39:00,35.2,33.6,29.33,South,186,10.1,13.2,94,0.01,-RA,,0.01,0.0,WeatherDisplay:10.37,2013-02-11 06:39:00,
2013-02-11 00:44:00,35.2,33.6,29.33,South,180,7.8,9.6,94,0.01,-RA,,0.01,0.0,WeatherDisplay:10.37,2013-02-11 06:44:00,
2013-02-11 00:49:00,35.2,33.6,29.33,SW,216,10.2,12.7,94,0.01,-RA,,0.02,0.0,WeatherDisplay:10.37,2013-02-11 06:49:00,
2013-02-11 00:54:00,35.0,33.4,29.33,SSW,209,13.9,13.9,94,0.02,-RA,,0.02,0.0,WeatherDisplay:10.37,2013-02-11 06:54:00,
2013-02-11 00:59:00,34.7,33.2,29.33,SSW,192,10.1,12.0,94,0.02,-RA,,0.02,0.0,WeatherDisplay:10.37,2013-02-11 06:59:00,
2013-02-11 01:04:00,34.7,33.2,29.33,SSW,193,13.4,18.4,94,0.01,-RA,,0.02,0.0,WeatherDisplay:10.37,2013-02-11 07:04:00,
2013-02-11 01:09:00,34.6,32.8,29.33,SW,216,12.9,16.1,93,0.01,-RA,,0.02,0.0,WeatherDisplay:10.37,2013-02-11 07:09:00,
2013-02-11 01:14:00,34.4,32.3,29.33,SSW,206,17.1,21.6,92,0.01,OVC,,0.02,0.0,WeatherDisplay:10.37,2013-02-11 07:14:00,
2013-02-11 01:19:00,34.3,32.2,29.33,SW,236,12.4,16.1,92,0.01,OVC,,0.02,0.0,WeatherDisplay:10.37,2013-02-11 07:19:00,
2013-02-11 01:24:00,34.3,32.2,29.33,SSW,211,10.9,13.2,92,0.01,-DZ,,0.02,0.0,WeatherDisplay:10.37,2013-02-11 07:24:00,
2013-02-11 01:29:00,34.0,31.9,29.33,South,190,8.4,9.6,92,0.01,-DZ,,0.02,0.0,WeatherDisplay:10.37,2013-02-11 07:29:00,
2013-02-11 01:34:00,33.8,31.7,29.33,SSW,207,16.6,18.0,92,0.01,-DZ,,0.02,0.0,WeatherDisplay:10.37,2013-02-11 07:34:00,
2013-02-11 01:39:00,33.5,31.7,29.33,SSW,208,16.6,24.0,93,0.01,-DZ,,0.02,0.0,WeatherDisplay:10.37,2013-02-11 07:39:00,
2013-02-11 01:44:00,33.5,31.4,29.33,SSW,202,20.7,24.2,92,0.01,OVC,,0.02,0.0,WeatherDisplay:10.37,2013-02-11 07:44:00,
2013-02-11 01:49:00,33.5,31.4,29.33,SSW,198,12.3,16.8,92,0.01,OVC,,0.02,0.0,WeatherDisplay:10.37,2013-02-11 07:49:00,
2013-02-11 01:54:00,33.5,31.2,29.33,SW,215,10.6,12.0,91,0.00,OVC,,0.02,0.0,WeatherDisplay:10.37,2013-02-11 07:54:00,
2013-02-11 01:59:00,33.5,31.2,29.33,SSW,200,14.4,20.7,91,0.00,OVC,,0.02,0.0,WeatherDisplay:10.37,2013-02-11 07:59:00,
2013-02-11 02:04:00,33.5,31.2,29.33,SSW,213,16.3,19.6,91,0.00,OVC,,0.02,0.0,WeatherDisplay:10.37,2013-02-11 08:04:00,
2013-02-11 02:09:00,33.5,31.2,29.33,SW,216,15.4,18.4,91,0.00,OVC,,0.02,0.0,WeatherDisplay:10.37,2013-02-11 08:09:00,
2013-02-11 02:14:00,33.5,30.9,29.34,SSW,205,10.7,16.1,90,0.00,OVC,,0.02,0.0,WeatherDisplay:10.37,2013-02-11 08:14:00,
2013-02-11 02:19:00,33.5,30.9,29.34,SSW,206,16.5,21.9,90,0.00,OVC,,0.02,0.0,WeatherDisplay:10.37,2013-02-11 08:19:00,
2013-02-11 02:24:00,33.4,30.8,29.34,SSW,192,17.4,19.6,90,0.00,OVC,,0.02,0.0,WeatherDisplay:10.37,2013-02-11 08:24:00,
2013-02-11 02:29:00,33.4,31.1,29.34,SSW,196,22.6,26.5,91,0.00,OVC,,0.02,0.0,WeatherDisplay:10.37,2013-02-11 08:29:00,
2013-02-11 02:34:00,33.4,31.1,29.34,SW,220,17.4,22.8,91,0.00,OVC,,0.02,0.0,WeatherDisplay:10.37,2013-02-11 08:34:00,
2013-02-11 02:39:00,33.2,30.9,29.34,SW,215,10.8,13.2,91,0.00,OVC,,0.02,0.0,WeatherDisplay:10.37,2013-02-11 08:39:00,
2013-02-11 02:44:00,33.2,30.9,29.34,SSW,211,10.6,13.2,91,0.00,OVC,,0.02,0.0,WeatherDisplay:10.37,2013-02-11 08:44:00,
2013-02-11 02:49:00,33.1,31.0,29.34,SW,221,10.2,13.2,92,0.00,OVC,,0.02,0.0,WeatherDisplay:10.37,2013-02-11 08:49:00,
2013-02-11 02:54:00,33.1,31.0,29.34,SSW,211,13.4,17.3,92,0.00,OVC,,0.02,0.0,WeatherDisplay:10.37,2013-02-11 08:54:00,
2013-02-11 02:59:00,33.1,31.3,29.34,SSW,211,9.9,12.0,93,0.00,OVC,,0.02,0.0,WeatherDisplay:10.37,2013-02-11 08:59:00,
2013-02-11 03:04:00,32.9,31.1,29.34,SW,231,10.4,12.7,93,0.00,-RA,,0.02,0.0,WeatherDisplay:10.37,2013-02-11 09:04:00,
2013-02-11 03:09:00,32.9,31.1,29.34,WSW,258,9.3,16.1,93,0.00,-RA,,0.02,0.0,WeatherDisplay:10.37,2013-02-11 09:09:00,
2013-02-11 03:14:00,32.9,31.1,29.34,South,188,10.6,12.0,93,0.00,-RA,,0.02,0.0,WeatherDisplay:10.37,2013-02-11 09:14:00,
2013-02-11 03:19:00,32.9,31.1,29.34,WSW,240,12.3,20.4,93,0.00,-RA,,0.02,0.0,WeatherDisplay:10.37,2013-02-11 09:19:00,
2013-02-11 03:24:00,33.1,31.3,29.34,South,191,10.4,12.0,93,0.00,OVC,,0.02,0.0,WeatherDisplay:10.37,2013-02-11 09:24:00,
2013-02-11 03:29:00,33.1,31.3,29.34,SSW,210,9.7,12.0,93,0.00,OVC,,0.02,0.0,WeatherDisplay:10.37,2013-02-11 09:29:00,
2013-02-11 03:34:00,33.1,31.3,29.34,SSW,205,14.9,19.6,93,0.00,OVC,,0.02,0.0,WeatherDisplay:10.37,2013-02-11 09:34:00,
2013-02-11 03:39:00,33.1,31.0,29.34,SSW,211,9.1,10.8,92,0.00,OVC,,0.02,0.0,WeatherDisplay:10.37,2013-02-11 09:39:00,
2013-02-11 03:44:00,33.1,31.0,29.34,SSW,211,12.0,16.1,92,0.00,-RA,,0.02,0.0,WeatherDisplay:10.37,2013-02-11 09:44:00,
2013-02-11 03:49:00,33.1,31.0,29.34,SSW,211,15.9,21.9,92,0.00,-RA,,0.02,0.0,WeatherDisplay:10.37,2013-02-11 09:49:00,
2013-02-11 03:54:00,33.1,30.8,29.34,SW,215,17.7,21.9,91,0.00,-RA,,0.02,0.0,WeatherDisplay:10.37,2013-02-11 09:54:00,
2013-02-11 03:59:00,33.1,30.8,29.34,SW,218,15.0,16.8,91,0.00,-RA,,0.02,0.0,WeatherDisplay:10.37,2013-02-11 09:59:00,
2013-02-11 04:04:00,33.1,30.8,29.34,SSW,212,12.0,13.2,91,0.00,-RA,,0.02,0.0,WeatherDisplay:10.37,2013-02-11 10:04:00,
2013-02-11 04:09:00,33.1,30.8,29.34,SSW,211,13.3,15.0,91,0.00,-RA,,0.02,0.0,WeatherDisplay:10.37,2013-02-11 10:09:00,
2013-02-11 04:14:00,32.9,30.6,29.34,SSW,202,12.6,18.0,91,0.00,-RA,,0.02,0.0,WeatherDisplay:10.37,2013-02-11 10:14:00,
2013-02-11 04:19:00,32.9,30.6,29.35,SW,217,13.1,16.1,91,0.00,-RA,,0.02,0.0,WeatherDisplay:10.37,2013-02-11 10:19:00,
2013-02-11 04:24:00,32.9,30.6,29.35,SSW,202,8.7,8.7,91,0.00,-SN,,0.02,0.0,WeatherDisplay:10.37,2013-02-11 10:24:00,
2013-02-11 04:29:00,32.9,30.6,29.35,SW,216,11.0,12.0,91,0.00,-SN,,0.02,0.0,WeatherDisplay:10.37,2013-02-11 10:29:00,
2013-02-11 04:34:00,32.9,30.6,29.36,SSW,206,12.4,15.6,91,0.00,-SN,,0.02,0.0,WeatherDisplay:10.37,2013-02-11 10:34:00,
2013-02-11 04:39:00,33.1,30.8,29.36,SW,228,12.3,15.0,91,0.00,-SN,,0.02,0.0,WeatherDisplay:10.37,2013-02-11 10:39:00,
2013-02-11 04:44:00,33.1,30.8,29.36,SSW,211,12.2,17.3,91,0.00,-SN,,0.02,0.0,WeatherDisplay:10.37,2013-02-11 10:44:00,
2013-02-11 04:49:00,33.1,30.8,29.37,SSW,203,13.7,14.4,91,0.00,-SN,,0.02,0.0,WeatherDisplay:10.37,2013-02-11 10:49:00,
2013-02-11 04:54:00,33.1,30.5,29.37,SW,224,12.5,17.3,90,0.00,-SN,,0.02,0.0,WeatherDisplay:10.37,2013-02-11 10:54:00,
2013-02-11 04:59:00,32.9,30.6,29.37,SW,217,12.1,13.2,91,0.00,-SN,,0.02,0.0,WeatherDisplay:10.37,2013-02-11 10:59:00,
2013-02-11 05:04:00,32.9,30.6,29.37,SW,235,12.7,16.1,91,0.00,-SN,,0.02,0.0,WeatherDisplay:10.37,2013-02-11 11:04:00,
2013-02-11 05:09:00,32.8,30.5,29.37,SW,223,11.3,18.4,91,0.00,-SN,,0.02,0.0,WeatherDisplay:10.37,2013-02-11 11:09:00,
2013-02-11 05:14:00,32.9,31.4,29.38,SW,218,11.8,13.2,94,0.00,-SN,,0.02,0.0,WeatherDisplay:10.37,2013-02-11 11:14:00,
2013-02-11 05:19:00,32.9,30.8,29.38,SW,217,15.5,19.6,92,0.00,-SN,,0.02,0.0,WeatherDisplay:10.37,2013-02-11 11:19:00,
2013-02-11 05:24:00,33.1,30.8,29.38,WSW,257,9.8,15.0,91,0.00,-SN,,0.02,0.0,WeatherDisplay:10.37,2013-02-11 11:24:00,
2013-02-11 05:29:00,33.1,30.8,29.39,South,182,13.2,16.8,91,0.00,-SN,,0.02,0.0,WeatherDisplay:10.37,2013-02-11 11:29:00,
2013-02-11 05:34:00,33.1,30.8,29.39,WSW,245,10.3,12.0,91,0.00,-SN,,0.02,0.0,WeatherDisplay:10.37,2013-02-11 11:34:00,
2013-02-11 05:39:00,33.2,30.9,29.39,SW,234,9.8,12.0,91,0.00,-SN,,0.02,0.0,WeatherDisplay:10.37,2013-02-11 11:39:00,
2013-02-11 05:44:00,33.2,30.6,29.39,West,263,12.5,20.7,90,0.00,-SN,,0.02,0.0,WeatherDisplay:10.37,2013-02-11 11:44:00,
2013-02-11 05:49:00,33.2,30.6,29.40,SW,236,16.7,21.9,90,0.00,-SN,,0.02,0.0,WeatherDisplay:10.37,2013-02-11 11:49:00,
2013-02-11 05:54:00,33.2,30.6,29.40,SW,225,9.1,12.0,90,0.00,-SN,,0.02,0.0,WeatherDisplay:10.37,2013-02-11 11:54:00,
2013-02-11 05:59:00,33.1,30.5,29.40,West,264,15.5,19.6,90,0.00,-SN,,0.02,0.0,WeatherDisplay:10.37,2013-02-11 11:59:00,
2013-02-11 06:04:00,33.1,30.5,29.42,WNW,283,11.2,15.0,90,0.00,-SN,,0.02,0.0,WeatherDisplay:10.37,2013-02-11 12:04:00,
2013-02-11 06:09:00,32.9,30.3,29.42,West,271,9.5,19.6,90,0.00,-SN,,0.02,0.0,WeatherDisplay:10.37,2013-02-11 12:09:00,
2013-02-11 06:14:00,32.7,30.4,29.43,WSW,247,10.2,13.2,91,0.00,-SN,,0.02,0.0,WeatherDisplay:10.37,2013-02-11 12:14:00,
2013-02-11 06:19:00,32.7,30.6,29.43,WSW,252,11.4,13.2,92,0.00,-SN,,0.02,0.0,WeatherDisplay:10.37,2013-02-11 12:19:00,
2013-02-11 06:24:00,32.7,30.6,29.43,West,259,10.4,14.4,92,0.00,-SN,,0.02,0.0,WeatherDisplay:10.37,2013-02-11 12:24:00,
2013-02-11 06:29:00,32.5,30.4,29.45,SW,225,7.8,15.0,92,0.00,-SN,,0.02,0.0,WeatherDisplay:10.37,2013-02-11 12:29:00,
2013-02-11 06:34:00,32.7,30.6,29.45,WSW,253,6.1,10.8,92,0.00,-SN,,0.02,0.0,WeatherDisplay:10.37,2013-02-11 12:34:00,
2013-02-11 06:39:00,32.7,30.6,29.45,WNW,283,11.2,15.0,92,0.00,-SN,,0.02,0.0,WeatherDisplay:10.37,2013-02-11 12:39:00,
2013-02-11 06:44:00,32.7,30.4,29.46,WSW,250,5.8,12.0,91,0.00,-SN,,0.02,0.0,WeatherDisplay:10.37,2013-02-11 12:44:00,
2013-02-11 06:49:00,32.8,30.2,29.46,WSW,254,8.8,12.0,90,0.00,-SN,,0.02,0.0,WeatherDisplay:10.37,2013-02-11 12:49:00,
2013-02-11 06:54:00,32.8,30.2,29.46,West,272,11.7,15.0,90,0.00,-SN,,0.02,0.0,WeatherDisplay:10.37,2013-02-11 12:54:00,
2013-02-11 06:59:00,32.8,29.9,29.46,West,274,9.6,16.1,89,0.00,-SN,,0.02,0.0,WeatherDisplay:10.37,2013-02-11 12:59:00,
2013-02-11 07:04:00,32.8,29.9,29.47,WNW,286,10.8,13.2,89,0.00,-SN,,0.02,0.0,WeatherDisplay:10.37,2013-02-11 13:04:00,
2013-02-11 07:09:00,32.8,29.9,29.47,WNW,286,10.6,15.0,89,0.00,-SN,,0.02,0.0,WeatherDisplay:10.37,2013-02-11 13:09:00,
2013-02-11 07:14:00,32.8,29.6,29.48,West,273,5.9,8.4,88,0.00,-SN,,0.02,0.0,WeatherDisplay:10.37,2013-02-11 13:14:00,
2013-02-11 07:19:00,32.8,29.6,29.48,SW,234,12.0,15.6,88,0.00,-SN,,0.02,5.0,WeatherDisplay:10.37,2013-02-11 13:19:00,
2013-02-11 07:25:00,32.7,29.3,29.48,WNW,284,11.2,15.0,87,0.00,-SN,,0.02,5.0,WeatherDisplay:10.37,2013-02-11 13:25:00,
2013-02-11 07:30:00,32.7,29.3,29.49,WNW,286,9.8,16.1,87,0.00,-SN,,0.02,7.0,WeatherDisplay:10.37,2013-02-11 13:30:00,
2013-02-11 07:35:00,32.7,29.0,29.49,West,259,10.7,15.6,86,0.00,-SN,,0.02,9.0,WeatherDisplay:10.37,2013-02-11 13:35:00,
2013-02-11 07:40:00,32.7,29.0,29.49,WNW,291,10.1,18.4,86,0.00,-SN,,0.02,12.0,WeatherDisplay:10.37,2013-02-11 13:40:00,
2013-02-11 07:45:00,32.7,29.0,29.50,WSW,245,7.4,10.8,86,0.00,OVC,,0.02,11.0,WeatherDisplay:10.37,2013-02-11 13:45:00,
2013-02-11 07:50:00,32.7,28.7,29.50,WNW,290,14.3,23.0,85,0.00,OVC,,0.02,26.0,WeatherDisplay:10.37,2013-02-11 13:50:00,
2013-02-11 07:55:00,32.5,28.5,29.50,WSW,248,10.9,12.0,85,0.00,OVC,,0.02,23.0,WeatherDisplay:10.37,2013-02-11 13:55:00,
2013-02-11 08:00:00,32.5,28.5,29.51,West,271,7.9,16.1,85,0.00,OVC,,0.02,18.0,WeatherDisplay:10.37,2013-02-11 14:00:00,
2013-02-11 08:05:00,32.5,28.5,29.51,SW,219,7.5,9.6,85,0.00,OVC,,0.02,11.0,WeatherDisplay:10.37,2013-02-11 14:05:00,
2013-02-11 08:10:00,32.5,28.5,29.51,WNW,286,12.0,16.1,85,0.00,OVC,,0.02,14.0,WeatherDisplay:10.37,2013-02-11 14:10:00,
2013-02-11 08:15:00,32.5,28.5,29.53,West,269,15.8,19.6,85,0.00,OVC,,0.02,19.0,WeatherDisplay:10.37,2013-02-11 14:15:00,
2013-02-11 08:20:00,32.4,28.4,29.53,West,277,11.1,21.9,85,0.00,OVC,,0.02,21.0,WeatherDisplay:10.37,2013-02-11 14:20:00,
2013-02-11 08:25:00,32.4,28.7,29.53,SW,231,9.0,18.4,86,0.00,OVC,,0.02,21.0,WeatherDisplay:10.37,2013-02-11 14:25:00,
2013-02-11 08:30:00,32.2,28.5,29.54,NW,317,10.4,12.0,86,0.00,OVC,,0.02,21.0,WeatherDisplay:10.37,2013-02-11 14:30:00,
2013-02-11 08:35:00,32.2,28.5,29.54,West,271,14.4,20.4,86,0.00,OVC,,0.02,26.0,WeatherDisplay:10.37,2013-02-11 14:35:00,
2013-02-11 08:40:00,32.1,28.7,29.54,West,281,14.6,17.3,87,0.00,OVC,,0.02,21.0,WeatherDisplay:10.37,2013-02-11 14:40:00,
2013-02-11 08:45:00,31.9,28.5,29.55,West,271,13.4,19.6,87,0.00,OVC,,0.02,25.0,WeatherDisplay:10.37,2013-02-11 14:45:00,
2013-02-11 08:50:00,31.9,28.5,29.55,West,267,13.3,15.0,87,0.00,OVC,,0.02,42.0,WeatherDisplay:10.37,2013-02-11 14:50:00,
2013-02-11 08:55:00,31.9,28.5,29.55,West,259,7.1,10.4,87,0.00,OVC,,0.02,37.0,WeatherDisplay:10.37,2013-02-11 14:55:00,
2013-02-11 09:00:00,31.8,28.4,29.56,West,272,11.4,18.4,87,0.00,OVC,,0.02,40.0,WeatherDisplay:10.37,2013-02-11 15:00:00,
2013-02-11 09:05:00,31.8,28.4,29.56,WNW,297,9.0,10.8,87,0.00,OVC,,0.02,40.0,WeatherDisplay:10.37,2013-02-11 15:05:00,
2013-02-11 09:10:00,31.8,28.4,29.56,West,261,15.9,19.6,87,0.00,OVC,,0.02,39.0,WeatherDisplay:10.37,2013-02-11 15:10:00,
2013-02-11 09:15:00,31.8,28.4,29.57,WNW,284,12.2,13.2,87,0.00,OVC,,0.02,39.0,WeatherDisplay:10.37,2013-02-11 15:15:00,
2013-02-11 09:20:00,31.6,28.2,29.57,WNW,290,9.2,12.0,87,0.00,OVC,,0.02,39.0,WeatherDisplay:10.37,2013-02-11 15:20:00,
2013-02-11 09:25:00,31.6,28.2,29.57,WNW,284,11.7,15.0,87,0.00,OVC,,0.02,46.0,WeatherDisplay:10.37,2013-02-11 15:25:00,
2013-02-11 09:30:00,31.6,28.2,29.58,NW,306,12.8,20.7,87,0.00,OVC,,0.02,35.0,WeatherDisplay:10.37,2013-02-11 15:30:00,
2013-02-11 09:35:00,31.6,28.2,29.58,WNW,291,10.0,12.7,87,0.00,OVC,,0.02,49.0,WeatherDisplay:10.37,2013-02-11 15:35:00,
2013-02-11 09:40:00,31.5,28.1,29.58,WNW,284,11.7,20.7,87,0.00,OVC,,0.02,47.0,WeatherDisplay:10.37,2013-02-11 15:40:00,
2013-02-11 09:45:00,31.5,28.1,29.59,West,277,6.1,15.0,87,0.00,OVC,,0.02,51.0,WeatherDisplay:10.37,2013-02-11 15:45:00,
2013-02-11 09:50:00,31.5,28.1,29.59,WNW,288,13.8,24.2,87,0.00,OVC,,0.02,46.0,WeatherDisplay:10.37,2013-02-11 15:50:00,
2013-02-11 09:55:00,31.3,27.9,29.59,WNW,291,8.1,9.6,87,0.00,OVC,,0.02,44.0,WeatherDisplay:10.37,2013-02-11 15:55:00,
2013-02-11 10:00:00,31.3,27.9,29.61,WNW,290,7.0,16.1,87,0.00,OVC,,0.02,46.0,WeatherDisplay:10.37,2013-02-11 16:00:00,
2013-02-11 10:05:00,31.3,27.9,29.61,WNW,286,8.6,15.0,87,0.00,OVC,,0.02,67.0,WeatherDisplay:10.37,2013-02-11 16:05:00,
2013-02-11 10:10:00,31.2,27.8,29.61,WNW,282,12.3,16.1,87,0.00,OVC,,0.02,69.0,WeatherDisplay:10.37,2013-02-11 16:10:00,
2013-02-11 10:15:00,31.0,27.6,29.62,West,278,11.1,12.0,87,0.00,OVC,,0.02,76.0,WeatherDisplay:10.37,2013-02-11 16:15:00,
2013-02-11 10:20:00,31.0,27.6,29.62,WSW,254,10.7,14.4,87,0.00,OVC,,0.02,69.0,WeatherDisplay:10.37,2013-02-11 16:20:00,
2013-02-11 10:25:00,30.9,27.5,29.62,WNW,291,15.9,20.7,87,0.00,BKN,,0.02,74.0,WeatherDisplay:10.37,2013-02-11 16:25:00,
2013-02-11 10:30:00,30.7,27.0,29.64,West,264,10.7,13.2,86,0.00,BKN,,0.02,84.0,WeatherDisplay:10.37,2013-02-11 16:30:00,
2013-02-11 10:35:00,30.7,27.0,29.64,West,271,10.2,15.0,86,0.00,BKN,,0.02,86.0,WeatherDisplay:10.37,2013-02-11 16:35:00,
2013-02-11 10:40:00,30.6,26.9,29.64,SW,228,10.6,21.9,86,0.00,BKN,,0.02,86.0,WeatherDisplay:10.37,2013-02-11 16:40:00,
2013-02-11 10:45:00,30.6,26.6,29.65,WSW,252,12.1,15.6,85,0.00,-SN,,0.02,81.0,WeatherDisplay:10.37,2013-02-11 16:45:00,
2013-02-11 10:50:00,30.4,26.4,29.65,WSW,246,13.5,18.4,85,0.00,-SN,,0.02,72.0,WeatherDisplay:10.37,2013-02-11 16:50:00,
2013-02-11 10:55:00,30.3,26.0,29.65,WNW,291,18.7,27.6,84,0.00,-SN,,0.02,70.0,WeatherDisplay:10.37,2013-02-11 16:55:00,
2013-02-11 11:00:00,30.3,26.0,29.67,WNW,294,17.4,20.7,84,0.00,-SN,,0.02,70.0,WeatherDisplay:10.37,2013-02-11 17:00:00,
2013-02-11 11:05:00,30.3,25.8,29.67,WSW,242,15.6,26.5,83,0.00,-SN,,0.02,62.0,WeatherDisplay:10.37,2013-02-11 17:05:00,
2013-02-11 11:10:00,30.3,25.8,29.67,WNW,294,12.5,17.3,83,0.00,-SN,,0.02,67.0,WeatherDisplay:10.37,2013-02-11 17:10:00,
2013-02-11 11:15:00,30.1,25.3,29.67,NNW,333,12.9,19.6,82,0.00,-SN,,0.02,69.0,WeatherDisplay:10.37,2013-02-11 17:15:00,
2013-02-11 11:20:00,30.3,25.5,29.67,West,277,9.7,19.2,82,0.00,-SN,,0.02,74.0,WeatherDisplay:10.37,2013-02-11 17:20:00,
2013-02-11 11:25:00,30.1,25.3,29.67,West,278,9.0,16.1,82,0.00,-SN,,0.02,84.0,WeatherDisplay:10.37,2013-02-11 17:25:00,
2013-02-11 11:30:00,30.1,25.3,29.67,West,261,12.1,15.0,82,0.00,-SN,,0.02,93.0,WeatherDisplay:10.37,2013-02-11 17:30:00,
2013-02-11 11:35:00,30.1,25.3,29.67,WNW,285,7.8,12.0,82,0.00,-SN,,0.02,74.0,WeatherDisplay:10.37,2013-02-11 17:35:00,
2013-02-11 11:40:00,29.8,25.0,29.67,WSW,254,11.6,12.0,82,0.00,-SN,,0.02,77.0,WeatherDisplay:10.37,2013-02-11 17:40:00,
2013-02-11 11:45:00,29.7,24.9,29.68,WNW,288,12.7,17.3,82,0.00,-SN,,0.02,90.0,WeatherDisplay:10.37,2013-02-11 17:45:00,
2013-02-11 11:50:00,29.5,24.7,29.68,WSW,241,11.7,15.6,82,0.00,-SN,,0.02,93.0,WeatherDisplay:10.37,2013-02-11 17:50:00,
2013-02-11 11:55:00,29.5,24.7,29.68,WNW,291,10.4,12.0,82,0.00,-SN,,0.02,100.0,WeatherDisplay:10.37,2013-02-11 17:55:00,
2013-02-11 12:00:00,29.5,24.7,29.69,West,268,8.9,11.5,82,0.00,-SN,,0.02,104.0,WeatherDisplay:10.37,2013-02-11 18:00:00,
2013-02-11 12:05:00,29.5,24.7,29.69,West,263,12.0,17.3,82,0.00,-SN,,0.02,113.0,WeatherDisplay:10.37,2013-02-11 18:05:00,
2013-02-11 12:10:00,29.3,24.2,29.69,West,275,9.7,12.0,81,0.00,-SN,,0.02,128.0,WeatherDisplay:10.37,2013-02-11 18:10:00,
2013-02-11 12:15:00,29.1,24.0,29.70,WSW,258,10.8,15.6,81,0.00,-SN,,0.02,109.0,WeatherDisplay:10.37,2013-02-11 18:15:00,
2013-02-11 12:20:00,29.1,24.0,29.70,West,269,12.9,20.4,81,0.00,-SN,,0.02,118.0,WeatherDisplay:10.37,2013-02-11 18:20:00,
2013-02-11 12:25:00,29.0,23.9,29.70,West,278,15.5,18.4,81,0.00,BKN,,0.02,102.0,WeatherDisplay:10.37,2013-02-11 18:25:00,
2013-02-11 12:30:00,28.8,23.4,29.71,WSW,239,14.2,18.4,80,0.00,BKN,,0.02,109.0,WeatherDisplay:10.37,2013-02-11 18:30:00,
2013-02-11 12:35:00,28.7,23.3,29.71,WNW,285,11.7,15.0,80,0.00,BKN,,0.02,104.0,WeatherDisplay:10.37,2013-02-11 18:35:00,
2013-02-11 12:40:00,28.7,23.3,29.71,WNW,288,10.2,12.0,80,0.00,BKN,,0.02,113.0,WeatherDisplay:10.37,2013-02-11 18:40:00,
2013-02-11 12:45:00,28.7,23.3,29.72,WNW,283,13.2,21.9,80,0.00,BKN,,0.02,118.0,WeatherDisplay:10.37,2013-02-11 18:45:00,
2013-02-11 12:50:00,28.7,23.0,29.72,WNW,290,8.3,16.1,79,0.00,BKN,,0.02,109.0,WeatherDisplay:10.37,2013-02-11 18:50:00,
2013-02-11 12:55:00,28.7,23.0,29.72,West,271,15.3,18.4,79,0.00,BKN,,0.02,107.0,WeatherDisplay:10.37,2013-02-11 18:55:00,
2013-02-11 13:00:00,28.7,23.3,29.72,WNW,282,7.5,13.2,80,0.00,BKN,,0.02,113.0,WeatherDisplay:10.37,2013-02-11 19:00:00,
2013-02-11 13:05:00,28.7,23.3,29.72,NW,326,11.7,17.3,80,0.00,SCT,,0.02,123.0,WeatherDisplay:10.37,2013-02-11 19:05:00,
2013-02-11 13:10:00,28.5,23.1,29.72,West,276,12.2,15.0,80,0.00,SCT,,0.02,105.0,WeatherDisplay:10.37,2013-02-11 19:10:00,
2013-02-11 13:15:00,28.5,23.1,29.73,WSW,250,7.8,13.2,80,0.00,SCT,,0.02,98.0,WeatherDisplay:10.37,2013-02-11 19:15:00,
2013-02-11 13:20:00,28.5,23.1,29.73,WSW,252,10.7,12.0,80,0.00,SCT,,0.02,98.0,WeatherDisplay:10.37,2013-02-11 19:20:00,
2013-02-11 13:25:00,28.5,23.1,29.73,West,281,12.4,19.6,80,0.00,SCT,,0.02,109.0,WeatherDisplay:10.37,2013-02-11 19:25:00,
2013-02-11 13:30:00,28.5,22.8,29.75,West,279,11.7,19.2,79,0.00,SCT,,0.02,109.0,WeatherDisplay:10.37,2013-02-11 19:30:00,
2013-02-11 13:35:00,28.5,22.8,29.75,West,262,16.7,26.4,79,0.00,SCT,,0.02,105.0,WeatherDisplay:10.37,2013-02-11 19:35:00,
2013-02-11 13:40:00,28.4,22.1,29.75,WNW,291,16.7,20.4,77,0.00,SCT,,0.02,109.0,WeatherDisplay:10.37,2013-02-11 19:40:00,
2013-02-11 13:45:00,28.4,22.1,29.75,WNW,292,12.9,19.6,77,0.00,BKN,,0.02,97.0,WeatherDisplay:10.37,2013-02-11 19:45:00,
2013-02-11 13:50:00,28.2,21.9,29.75,West,262,11.9,21.6,77,0.00,BKN,,0.02,83.0,WeatherDisplay:10.37,2013-02-11 19:50:00,
2013-02-11 13:55:00,28.2,21.9,29.75,WNW,291,12.0,21.9,77,0.00,BKN,,0.02,93.0,WeatherDisplay:10.37,2013-02-11 19:55:00,
2013-02-11 14:00:00,28.1,21.8,29.77,WNW,298,9.9,21.9,77,0.00,BKN,,0.02,91.0,WeatherDisplay:10.37,2013-02-11 20:00:00,
2013-02-11 14:05:00,28.1,21.8,29.77,West,273,10.9,21.9,77,0.00,BKN,,0.02,91.0,WeatherDisplay:10.37,2013-02-11 20:05:00,
2013-02-11 14:10:00,28.1,21.8,29.77,NW,305,6.9,10.4,77,0.00,-SN,,0.02,93.0,WeatherDisplay:10.37,2013-02-11 20:10:00,
2013-02-11 14:15:00,27.9,21.6,29.78,West,267,7.6,10.8,77,0.00,-SN,,0.02,98.0,WeatherDisplay:10.37,2013-02-11 20:15:00,
2013-02-11 14:20:00,27.8,21.5,29.78,West,267,11.6,16.1,77,0.00,-SN,,0.02,125.0,WeatherDisplay:10.37,2013-02-11 20:20:00,
2013-02-11 14:25:00,27.8,21.5,29.78,WNW,298,11.1,15.6,77,0.00,-SN,,0.02,128.0,WeatherDisplay:10.37,2013-02-11 20:25:00,
2013-02-11 14:30:00,27.8,21.8,29.78,WNW,283,7.0,9.6,78,0.00,-SN,,0.02,116.0,WeatherDisplay:10.37,2013-02-11 20:30:00,
2013-02-11 14:35:00,27.6,21.6,29.78,NW,313,11.3,17.3,78,0.00,-SN,,0.02,116.0,WeatherDisplay:10.37,2013-02-11 20:35:00,
2013-02-11 14:40:00,27.6,21.9,29.78,WSW,255,7.8,13.2,79,0.00,-SN,,0.02,113.0,WeatherDisplay:10.37,2013-02-11 20:40:00,
2013-02-11 14:45:00,27.5,21.8,29.80,WNW,300,10.4,17.3,79,0.00,-SN,,0.02,97.0,WeatherDisplay:10.37,2013-02-11 20:45:00,
2013-02-11 14:50:00,27.3,21.9,29.80,WSW,258,13.3,16.1,80,0.00,-SN,,0.02,84.0,WeatherDisplay:10.37,2013-02-11 20:50:00,
2013-02-11 14:55:00,27.3,21.6,29.80,WNW,299,12.6,18.0,79,0.00,-SN,,0.02,91.0,WeatherDisplay:10.37,2013-02-11 20:55:00,
2013-02-11 15:00:00,27.5,21.5,29.81,WNW,284,10.2,18.0,78,0.00,-SN,,0.02,81.0,WeatherDisplay:10.37,2013-02-11 21:00:00,
2013-02-11 15:05:00,27.5,21.2,29.81,WNW,287,7.2,9.6,77,0.00,-SN,,0.02,62.0,WeatherDisplay:10.37,2013-02-11 21:05:00,
2013-02-11 15:10:00,27.5,21.2,29.81,WNW,287,11.7,15.0,77,0.00,-SN,,0.02,60.0,WeatherDisplay:10.37,2013-02-11 21:10:00,
2013-02-11 15:15:00,27.3,21.0,29.82,WSW,256,10.3,15.0,77,0.00,SCT,,0.02,58.0,WeatherDisplay:10.37,2013-02-11 21:15:00,
2013-02-11 15:20:00,27.5,21.2,29.82,WNW,283,2.3,3.6,77,0.00,SCT,,0.02,63.0,WeatherDisplay:10.37,2013-02-11 21:20:00,
2013-02-11 15:25:00,27.5,21.2,29.82,NW,306,10.8,13.2,77,0.00,SCT,,0.02,70.0,WeatherDisplay:10.37,2013-02-11 21:25:00,
2013-02-11 15:30:00,27.5,20.9,29.83,West,280,9.4,12.0,76,0.00,SCT,,0.02,60.0,WeatherDisplay:10.37,2013-02-11 21:30:00,
2013-02-11 15:35:00,27.5,20.9,29.83,West,271,10.0,16.1,76,0.00,SCT,,0.02,53.0,WeatherDisplay:10.37,2013-02-11 21:35:00,
2013-02-11 15:40:00,27.3,20.7,29.83,West,277,8.7,13.2,76,0.00,-SN,,0.02,46.0,WeatherDisplay:10.37,2013-02-11 21:40:00,
2013-02-11 15:45:00,27.3,20.7,29.83,West,267,9.9,17.3,76,0.00,-SN,,0.02,44.0,WeatherDisplay:10.37,2013-02-11 21:45:00,
2013-02-11 15:50:00,27.3,21.0,29.83,WNW,286,5.5,8.1,77,0.00,-SN,,0.02,42.0,WeatherDisplay:10.37,2013-02-11 21:50:00,
2013-02-11 15:55:00,27.3,20.7,29.83,West,271,8.1,13.2,76,0.00,-SN,,0.02,39.0,WeatherDisplay:10.37,2013-02-11 21:55:00,
2013-02-11 16:00:00,27.3,20.7,29.84,West,269,8.2,12.0,76,0.00,-SN,,0.02,35.0,WeatherDisplay:10.37,2013-02-11 22:00:00,
2013-02-11 16:05:00,27.3,20.4,29.84,West,269,9.1,11.5,75,0.00,-SN,,0.02,33.0,WeatherDisplay:10.37,2013-02-11 22:05:00,
2013-02-11 16:10:00,27.5,20.6,29.84,WNW,299,9.7,16.1,75,0.00,-SN,,0.02,37.0,WeatherDisplay:10.37,2013-02-11 22:10:00,
2013-02-11 16:15:00,27.5,20.6,29.85,WNW,296,6.4,12.7,75,0.00,-SN,,0.02,39.0,WeatherDisplay:10.37,2013-02-11 22:15:00,
2013-02-11 16:20:00,27.5,20.6,29.85,WNW,296,6.6,10.8,75,0.00,-SN,,0.02,25.0,WeatherDisplay:10.37,2013-02-11 22:20:00,
2013-02-11 16:25:00,27.3,20.4,29.85,WNW,294,7.6,10.8,75,0.00,-SN,,0.02,25.0,WeatherDisplay:10.37,2013-02-11 22:25:00,
2013-02-11 16:30:00,27.3,20.4,29.86,West,259,10.3,14.4,75,0.00,-SN,,0.02,23.0,WeatherDisplay:10.37,2013-02-11 22:30:00,
2013-02-11 16:35:00,27.3,20.7,29.86,WNW,284,7.5,14.4,76,0.00,-SN,,0.02,21.0,WeatherDisplay:10.37,2013-02-11 22:35:00,
2013-02-11 16:40:00,27.3,20.7,29.86,WSW,253,6.1,13.2,76,0.00,SCT,,0.02,16.0,WeatherDisplay:10.37,2013-02-11 22:40:00,
2013-02-11 16:45:00,27.3,20.7,29.86,West,281,7.1,10.8,76,0.00,SCT,,0.02,14.0,WeatherDisplay:10.37,2013-02-11 22:45:00,
2013-02-11 16:50:00,27.3,21.0,29.86,West,280,6.3,8.1,77,0.00,SCT,,0.02,9.0,WeatherDisplay:10.37,2013-02-11 22:50:00,
2013-02-11 16:55:00,27.0,21.4,29.86,West,280,8.2,12.7,79,0.00,SCT,,0.02,5.0,WeatherDisplay:10.37,2013-02-11 22:55:00,
2013-02-11 17:00:00,26.9,21.6,29.88,West,263,7.6,9.6,80,0.00,SCT,,0.02,0.0,WeatherDisplay:10.37,2013-02-11 23:00:00,
2013-02-11 17:05:00,26.9,21.6,29.88,West,280,6.7,9.6,80,0.00,SCT,,0.02,0.0,WeatherDisplay:10.37,2013-02-11 23:05:00,
2013-02-11 17:10:00,26.7,21.4,29.88,West,262,6.2,9.6,80,0.00,SCT,,0.02,0.0,WeatherDisplay:10.37,2013-02-11 23:10:00,
2013-02-11 17:15:00,26.7,21.4,29.88,WSW,258,7.2,10.8,80,0.00,SCT,,0.02,0.0,WeatherDisplay:10.37,2013-02-11 23:15:00,
2013-02-11 17:20:00,26.6,21.6,29.88,WSW,242,8.5,12.0,81,0.00,SCT,,0.02,0.0,WeatherDisplay:10.37,2013-02-11 23:20:00,
2013-02-11 17:25:00,26.7,21.4,29.88,West,260,4.5,6.0,80,0.00,SCT,,0.02,0.0,WeatherDisplay:10.37,2013-02-11 23:25:00,
2013-02-11 17:30:00,26.7,21.4,29.88,WNW,285,10.7,16.1,80,0.00,SCT,,0.02,0.0,WeatherDisplay:10.37,2013-02-11 23:30:00,
2013-02-11 17:35:00,26.7,21.1,29.88,West,280,10.7,12.7,79,0.00,SCT,,0.02,0.0,WeatherDisplay:10.37,2013-02-11 23:35:00,
2013-02-11 17:40:00,26.7,20.8,29.88,WNW,292,6.6,8.4,78,0.00,SCT,,0.02,0.0,WeatherDisplay:10.37,2013-02-11 23:40:00,
2013-02-11 17:45:00,26.7,20.8,29.90,West,271,8.0,10.4,78,0.00,SCT,,0.02,0.0,WeatherDisplay:10.37,2013-02-11 23:45:00,
2013-02-11 17:50:00,26.7,20.5,29.90,West,279,4.9,9.6,77,0.00,SCT,,0.02,0.0,WeatherDisplay:10.37,2013-02-11 23:50:00,
2013-02-11 17:55:00,26.9,20.3,29.90,WNW,301,10.7,13.2,76,0.00,SCT,,0.02,0.0,WeatherDisplay:10.37,2013-02-11 23:55:00,
2013-02-11 18:00:00,26.9,20.0,29.90,West,279,10.0,12.7,75,0.00,SCT,,0.02,0.0,WeatherDisplay:10.37,2013-02-12 00:00:00,
2013-02-11 18:05:00,26.9,20.0,29.90,West,271,5.0,8.4,75,0.00,SCT,,0.02,0.0,WeatherDisplay:10.37,2013-02-12 00:05:00,
2013-02-11 18:10:00,26.9,20.0,29.90,WNW,288,10.8,21.6,75,0.00,BKN,,0.02,0.0,WeatherDisplay:10.37,2013-02-12 00:10:00,
2013-02-11 18:16:00,26.7,19.8,29.91,WSW,240,8.5,13.2,75,0.00,SCT,,0.02,0.0,WeatherDisplay:10.37,2013-02-12 00:16:00,
2013-02-11 18:21:00,26.7,19.8,29.91,WNW,292,9.2,10.8,75,0.00,BKN,,0.02,0.0,WeatherDisplay:10.37,2013-02-12 00:21:00,
2013-02-11 18:26:00,26.7,20.1,29.91,WNW,285,8.9,13.2,76,0.00,BKN,,0.02,0.0,WeatherDisplay:10.37,2013-02-12 00:26:00,
2013-02-11 18:31:00,26.6,20.1,29.92,West,267,9.0,10.8,76,0.00,BKN,,0.02,0.0,WeatherDisplay:10.37,2013-02-12 00:31:00,
2013-02-11 18:36:00,26.6,20.1,29.92,WNW,294,11.5,18.4,76,0.00,BKN,,0.02,0.0,WeatherDisplay:10.37,2013-02-12 00:36:00,
2013-02-11 18:41:00,26.6,20.1,29.92,SW,219,6.5,13.2,76,0.00,OVC,,0.02,0.0,WeatherDisplay:10.37,2013-02-12 00:41:00,
2013-02-11 18:46:00,26.6,19.7,29.93,West,278,10.5,18.4,75,0.00,OVC,,0.02,0.0,WeatherDisplay:10.37,2013-02-12 00:46:00,
2013-02-11 18:51:00,26.6,19.7,29.93,WSW,242,7.2,9.6,75,0.00,OVC,,0.02,0.0,WeatherDisplay:10.37,2013-02-12 00:51:00,
2013-02-11 18:56:00,26.6,19.7,29.93,WNW,286,10.4,13.2,75,0.00,OVC,,0.02,0.0,WeatherDisplay:10.37,2013-02-12 00:56:00,
2013-02-11 19:01:00,26.6,19.7,29.93,West,272,7.4,19.6,75,0.00,OVC,,0.02,0.0,WeatherDisplay:10.37,2013-02-12 01:01:00,
2013-02-11 19:06:00,26.6,20.1,29.93,West,274,6.8,13.2,76,0.00,OVC,,0.02,0.0,WeatherDisplay:10.37,2013-02-12 01:06:00,
2013-02-11 19:11:00,26.4,19.5,29.93,NNW,331,5.4,8.4,75,0.00,OVC,,0.02,0.0,WeatherDisplay:10.37,2013-02-12 01:11:00,
2013-02-11 19:16:00,26.4,19.2,29.94,NW,306,13.2,16.1,74,0.00,OVC,,0.02,0.0,WeatherDisplay:10.37,2013-02-12 01:16:00,
2013-02-11 19:21:00,26.4,19.5,29.94,WNW,296,4.6,8.1,75,0.00,BKN,,0.02,0.0,WeatherDisplay:10.37,2013-02-12 01:21:00,
2013-02-11 19:26:00,26.4,19.5,29.94,West,274,12.9,16.1,75,0.00,BKN,,0.02,0.0,WeatherDisplay:10.37,2013-02-12 01:26:00,
2013-02-11 19:31:00,26.4,19.2,29.95,WSW,242,6.9,13.2,74,0.00,BKN,,0.02,0.0,WeatherDisplay:10.37,2013-02-12 01:31:00,
2013-02-11 19:36:00,26.4,19.2,29.95,West,279,8.4,10.8,74,0.00,BKN,,0.02,0.0,WeatherDisplay:10.37,2013-02-12 01:36:00,
2013-02-11 19:41:00,26.4,19.2,29.95,West,279,8.4,10.8,74,0.00,BKN,,0.02,0.0,WeatherDisplay:10.37,2013-02-12 01:41:00,
2013-02-11 19:46:00,26.4,19.2,29.96,WNW,288,8.8,12.7,74,0.00,BKN,,0.02,0.0,WeatherDisplay:10.37,2013-02-12 01:46:00,
2013-02-11 19:51:00,26.4,19.2,29.96,NW,309,6.6,8.4,74,0.00,BKN,,0.02,0.0,WeatherDisplay:10.37,2013-02-12 01:51:00,
2013-02-11 19:56:00,26.3,19.5,29.96,WNW,292,7.4,9.6,75,0.00,BKN,,0.02,0.0,WeatherDisplay:10.37,2013-02-12 01:56:00,
2013-02-11 20:01:00,26.3,19.5,29.96,West,272,10.0,12.0,75,0.00,BKN,,0.02,0.0,WeatherDisplay:10.37,2013-02-12 02:01:00,
2013-02-11 20:06:00,26.1,19.3,29.96,WNW,296,7.4,9.6,75,0.00,BKN,,0.02,0.0,WeatherDisplay:10.37,2013-02-12 02:06:00,
2013-02-11 20:11:00,26.1,19.6,29.96,NW,316,7.3,9.6,76,0.00,BKN,,0.02,0.0,WeatherDisplay:10.37,2013-02-12 02:11:00,
2013-02-11 20:16:00,26.0,19.5,29.96,WNW,296,6.6,7.2,76,0.00,BKN,,0.02,0.0,WeatherDisplay:10.37,2013-02-12 02:16:00,
2013-02-11 20:21:00,26.0,19.8,29.96,West,269,6.5,11.5,77,0.00,BKN,,0.02,0.0,WeatherDisplay:10.37,2013-02-12 02:21:00,
2013-02-11 20:26:00,25.8,19.6,29.96,West,281,4.9,8.4,77,0.00,BKN,,0.02,0.0,WeatherDisplay:10.37,2013-02-12 02:26:00,
2013-02-11 20:31:00,25.8,19.6,29.97,WNW,292,7.5,9.6,77,0.00,BKN,,0.02,0.0,WeatherDisplay:10.37,2013-02-12 02:31:00,
2013-02-11 20:36:00,25.8,19.3,29.97,WNW,288,8.4,9.6,76,0.00,BKN,,0.02,0.0,WeatherDisplay:10.37,2013-02-12 02:36:00,
2013-02-11 20:41:00,25.7,19.2,29.97,West,271,8.4,12.7,76,0.00,OVC,,0.02,0.0,WeatherDisplay:10.37,2013-02-12 02:41:00,
2013-02-11 20:46:00,25.7,19.2,29.98,WNW,286,10.8,13.2,76,0.00,OVC,,0.02,0.0,WeatherDisplay:10.37,2013-02-12 02:46:00,
2013-02-11 20:51:00,25.6,19.1,29.98,WNW,299,11.5,18.4,76,0.00,OVC,,0.02,0.0,WeatherDisplay:10.37,2013-02-12 02:51:00,
2013-02-11 20:56:00,25.6,19.1,29.98,NW,319,12.2,16.1,76,0.00,OVC,,0.02,0.0,WeatherDisplay:10.37,2013-02-12 02:56:00,
2013-02-11 21:01:00,25.6,19.1,29.97,WNW,284,3.7,8.1,76,0.00,OVC,,0.02,0.0,WeatherDisplay:10.37,2013-02-12 03:01:00,
2013-02-11 21:06:00,25.4,18.9,29.97,NW,309,9.4,15.0,76,0.00,OVC,,0.02,0.0,WeatherDisplay:10.37,2013-02-12 03:06:00,
2013-02-11 21:11:00,25.4,18.9,29.97,WNW,294,10.6,16.1,76,0.00,OVC,,0.02,0.0,WeatherDisplay:10.37,2013-02-12 03:11:00,
2013-02-11 21:16:00,25.4,18.9,29.98,NW,305,9.3,12.0,76,0.00,OVC,,0.02,0.0,WeatherDisplay:10.37,2013-02-12 03:16:00,
2013-02-11 21:21:00,25.4,18.9,29.98,WNW,288,5.9,10.4,76,0.00,OVC,,0.02,0.0,WeatherDisplay:10.37,2013-02-12 03:21:00,
2013-02-11 21:26:00,25.3,18.8,29.98,West,276,8.2,11.5,76,0.00,OVC,,0.02,0.0,WeatherDisplay:10.37,2013-02-12 03:26:00,
2013-02-11 21:31:00,25.3,18.8,29.98,West,276,10.8,13.2,76,0.00,OVC,,0.02,0.0,WeatherDisplay:10.37,2013-02-12 03:31:00,
2013-02-11 21:36:00,25.3,18.8,29.98,WNW,287,5.3,7.2,76,0.00,OVC,,0.02,0.0,WeatherDisplay:10.37,2013-02-12 03:36:00,
2013-02-11 21:41:00,25.3,18.8,29.98,NW,309,11.4,17.3,76,0.00,OVC,,0.02,0.0,WeatherDisplay:10.37,2013-02-12 03:41:00,
2013-02-11 21:46:00,25.1,18.6,29.99,WNW,298,6.2,10.8,76,0.00,OVC,,0.02,0.0,WeatherDisplay:10.37,2013-02-12 03:46:00,
2013-02-11 21:51:00,25.1,19.2,29.99,NW,323,10.5,15.6,78,0.00,OVC,,0.02,0.0,WeatherDisplay:10.37,2013-02-12 03:51:00,
2013-02-11 21:56:00,25.1,18.6,29.99,WNW,287,9.1,13.2,76,0.00,OVC,,0.02,0.0,WeatherDisplay:10.37,2013-02-12 03:56:00,
2013-02-11 22:01:00,25.1,18.6,29.99,WNW,293,5.6,8.4,76,0.00,OVC,,0.02,0.0,WeatherDisplay:10.37,2013-02-12 04:01:00,
2013-02-11 22:06:00,25.0,18.5,29.99,WSW,250,5.8,10.8,76,0.00,BKN,,0.02,0.0,WeatherDisplay:10.37,2013-02-12 04:06:00,
2013-02-11 22:11:00,24.8,18.6,29.99,West,276,6.8,10.8,77,0.00,BKN,,0.02,0.0,WeatherDisplay:10.37,2013-02-12 04:11:00,
2013-02-11 22:16:00,24.7,18.5,30.00,WNW,283,7.9,10.8,77,0.00,BKN,,0.02,0.0,WeatherDisplay:10.37,2013-02-12 04:16:00,
2013-02-11 22:21:00,24.5,18.3,30.00,West,269,7.6,16.1,77,0.00,BKN,,0.02,0.0,WeatherDisplay:10.37,2013-02-12 04:21:00,
2013-02-11 22:26:00,24.5,18.3,30.00,WNW,288,3.0,6.9,77,0.00,BKN,,0.02,0.0,WeatherDisplay:10.37,2013-02-12 04:26:00,
2013-02-11 22:31:00,24.4,18.2,30.00,WSW,237,6.1,12.7,77,0.00,BKN,,0.02,0.0,WeatherDisplay:10.37,2013-02-12 04:31:00,
2013-02-11 22:36:00,24.4,18.2,30.00,West,270,10.5,14.4,77,0.00,BKN,,0.02,0.0,WeatherDisplay:10.37,2013-02-12 04:36:00,
2013-02-11 22:41:00,24.2,18.0,30.00,WNW,300,7.4,8.4,77,0.00,BKN,,0.02,0.0,WeatherDisplay:10.37,2013-02-12 04:41:00,
2013-02-11 22:46:00,24.2,18.0,30.00,WNW,285,4.5,10.4,77,0.00,BKN,,0.02,0.0,WeatherDisplay:10.37,2013-02-12 04:46:00,
2013-02-11 22:51:00,24.1,17.9,30.00,WNW,286,9.6,11.5,77,0.00,BKN,,0.02,0.0,WeatherDisplay:10.37,2013-02-12 04:51:00,
2013-02-11 22:56:00,24.1,17.9,30.00,WNW,289,6.8,9.6,77,0.00,BKN,,0.02,0.0,WeatherDisplay:10.37,2013-02-12 04:56:00,
2013-02-11 23:00:00,23.9,17.7,30.01,West,281,4.9,7.2,77,0.00,BKN,,0.02,0.0,WeatherDisplay:10.37,2013-02-12 05:00:00,
2013-02-11 23:05:00,23.9,17.7,30.01,WNW,300,11.9,13.2,77,0.00,OVC,,0.02,0.0,WeatherDisplay:10.37,2013-02-12 05:05:00,
2013-02-11 23:10:00,23.9,17.7,30.01,WNW,290,5.0,15.0,77,0.00,OVC,,0.02,0.0,WeatherDisplay:10.37,2013-02-12 05:10:00,
2013-02-11 23:15:00,23.8,17.6,30.01,WNW,285,6.9,11.5,77,0.00,OVC,,0.02,0.0,WeatherDisplay:10.37,2013-02-12 05:15:00,
2013-02-11 23:20:00,23.8,17.6,30.01,West,261,5.5,9.2,77,0.00,OVC,,0.02,0.0,WeatherDisplay:10.37,2013-02-12 05:20:00,
2013-02-11 23:25:00,23.8,17.6,30.01,WNW,296,8.1,10.8,77,0.00,OVC,,0.02,0.0,WeatherDisplay:10.37,2013-02-12 05:25:00,
2013-02-11 23:30:00,23.6,17.4,30.01,West,277,13.0,17.3,77,0.00,OVC,,0.02,0.0,WeatherDisplay:10.37,2013-02-12 05:30:00,
2013-02-11 23:35:00,23.6,17.4,30.01,WSW,239,9.0,12.0,77,0.00,OVC,,0.02,0.0,WeatherDisplay:10.37,2013-02-12 05:35:00,
2013-02-11 23:40:00,23.6,17.4,30.01,WNW,291,9.8,16.1,77,0.00,OVC,,0.02,0.0,WeatherDisplay:10.37,2013-02-12 05:40:00,
2013-02-11 23:45:00,23.6,17.4,30.01,NW,321,10.9,18.4,77,0.00,OVC,,0.02,0.0,WeatherDisplay:10.37,2013-02-12 05:45:00,
2013-02-11 23:50:00,23.5,17.3,30.01,NW,320,9.3,12.0,77,0.00,OVC,,0.02,0.0,WeatherDisplay:10.37,2013-02-12 05:50:00,
2013-02-11 23:55:00,23.5,17.3,30.01,West,280,6.2,16.1,77,0.00,OVC,,0.02,0.0,WeatherDisplay:10.37,2013-02-12 05:55:00,